SB KEPS @ AMSAT $ORB14044.N 2Line Orbital Elements 14044.AMSAT
HR AMSAT ORBITAL ELEMENTS FOR AMATEUR SATELLITES IN NASA FORMAT FROM WA5QGD FORT WORTH,TX February 13, 2014 BID: ORB14044.N
DECODE 2-LINE ELSETS WITH THE FOLLOWING KEY: 1 AAAAAU 00 0 0 BBBBB.BBBBBBBB .CCCCCCCC 00000-0 00000-0 0 DDDZ 2 AAAAA EEE.EEEE FFF.FFFF GGGGGGG HHH.HHHH III.IIII JJ.JJJJJJJJKKKKKZ KEY: A-CATALOGNUM B-EPOCHTIME C-DECAY D-ELSETNUM E-INCLINATION F-RAAN G-ECCENTRICITY H-ARGPERIGEE I-MNANOM J-MNMOTION K-ORBITNUM Z-CHECKSUM
TO ALL RADIO AMATEURS BT
AO-07 1 07530U 74089B 14044.90995178 -.00000041 00000-0 12863-4 0 8948 2 07530 101.4601 030.8627 0011987 174.0916 214.3048 12.53602193796073 FO-29 1 24278U 96046B 14044.13168288 -.00000009 00000-0 29383-4 0 3070 2 24278 098.5224 075.0661 0349591 259.4309 132.6108 13.53015328863899 SO-33 1 25509U 98061B 14044.67496049 .00000610 00000-0 10958-3 0 6892 2 25509 031.4321 140.1137 0350297 112.4459 035.8561 14.29303652799464 RS-22 1 27939U 03042A 14044.61569946 .00001433 00000-0 27610-3 0 2193 2 27939 097.8000 224.9705 0013854 137.6154 222.6120 14.64880336554634 VO-52 1 28650U 05017B 14044.18746628 .00002244 00000-0 26923-3 0 6588 2 28650 097.5612 055.4050 0025060 203.3211 156.6870 14.84763218474829 HO-68 1 36122U 09072B 14044.75155655 -.00000043 00000-0 00000 0 0 3210 2 36122 100.2694 100.3055 0007787 159.8774 200.2636 13.16311618200194 AO-73 1 39444U 13066AE 14044.46697688 .00003393 00000-0 46784-3 0 639 2 39444 097.7891 119.3179 0062110 285.0229 074.4149 14.77519457 11197 UO-11 1 14781U 84021B 14043.75572161 .00001311 00000-0 17459-3 0 4149 2 14781 097.8686 106.2251 0008213 217.8184 142.2453 14.81298108609546 AO-16 1 20439U 90005D 14043.68826728 .00000274 00000-0 11757-3 0 9549 2 20439 098.4978 343.4407 0011442 162.1865 266.8429 14.32281212256669 LO-19 1 20442U 90005G 14043.88800684 .00000264 00000-0 11328-3 0 8922 2 20442 098.4682 344.6693 0012600 152.1541 208.0320 14.32486886256888 AO-27 1 22825U 93061C 14044.80608006 .00000182 00000-0 88375-4 0 5968 2 22825 098.6496 351.6384 0007330 302.9592 108.6930 14.29655567 63158 IO-26 1 22826U 93061D 14043.83741398 .00000270 00000-0 12199-3 0 3521 2 22826 098.6436 350.9168 0007850 297.6013 062.4371 14.29949007 63140 GO-32 1 25397U 98043D 14044.52625654 .00000124 00000-0 73270-4 0 2766 2 25397 098.4530 007.2368 0000664 024.8168 089.2305 14.23402750810271 NO-44 1 26931U 01043C 14043.83745836 .00000279 00000-0 13989-3 0 5341 2 26931 067.0541 359.0959 0005595 270.2766 089.7694 14.30039752645822 SO-50 1 27607U 02058C 14044.86286939 .00000898 00000-0 15781-3 0 3030 2 27607 064.5554 248.1866 0034743 056.7974 039.1103 14.73407858599318 CO-55 1 27844U 03031E 14044.60876847 .00000353 00000-0 18160-3 0 8552 2 27844 098.7004 055.1607 0008633 270.7185 208.7421 14.21387747551020 CO-57 1 27848U 03031J 14044.52270693 .00000311 00000-0 16352-3 0 7963 2 27848 098.7096 054.7190 0008525 278.0980 232.7560 14.21090786550935 AO-51 1 28375U 04025K 14044.85749911 .00000423 00000-0 13856-3 0 7716 2 28375 098.2371 356.0679 0083142 006.1423 049.5233 14.41274713506143 CP3 1 31129U 07012N 14044.55406675 .00002173 00000-0 49022-3 0 6739 2 31129 097.9213 028.9188 0099998 036.8268 079.8904 14.54225859362061 CO-65 1 32785U 08021C 14044.46772534 .00002121 00000-0 25636-3 0 8672 2 32785 097.7170 099.7619 0013096 231.6472 253.3595 14.84687074313663 PRISM 1 33493U 09002B 14044.88703058 .00007450 00000-0 81657-3 0 6404 2 33493 098.2384 215.4741 0018490 124.8085 235.4866 14.87930490273834 SOHLA-1 1 33496U 09002E 14044.42889021 .00000734 00000-0 12912-3 0 2730 2 33496 098.1541 165.1941 0005250 273.8524 127.9980 14.70583828271322 TISAT-1 1 36799U 10035E 14044.79573003 .00004831 00000-0 57699-3 0 9052 2 36799 098.0200 135.9468 0014479 008.0325 352.1095 14.84626249194403 STUDSAT 1 36801U 10035G 14043.45279159 .00013933 00000-0 13552-2 0 7682 2 36801 098.0360 140.4709 0010015 344.6496 145.7768 14.92637606194493 ALMASAT-1 1 38078U 12006B 14044.86607483 .00030378 00000-0 67446-3 0 9306 2 38078 069.4753 354.4611 0639725 194.9458 238.3166 14.39071553103829 XATCOBEO 1 38082U 12006F 14044.88338058 .00137521 67860-5 17654-2 0 9420 2 38082 069.4586 290.5608 0400432 160.4227 329.3030 15.00392213105569 CUBEBUG-1 1 39153U 13018D 14044.76166612 .00002685 00000-0 38608-3 0 8529 2 39153 098.0515 125.3117 0018630 031.5241 328.7042 14.77144261 43331 ESTCUBE-1 1 39161U 13021C 14044.86757128 .00002146 00000-0 36963-3 0 8222 2 39161 098.1060 126.6650 0011343 070.0240 290.2165 14.69549281 41488 NOAA-10 1 16969U 86073A 14044.20304352 .00000112 00000-0 62701-4 0 6707 2 16969 098.5242 071.5099 0011267 256.3053 145.7869 14.27715638426337 NOAA-11 1 19531U 88089A 14044.20458053 .00000105 00000-0 76451-4 0 6936 2 19531 098.6895 126.3441 0010126 293.5279 066.4830 14.15056125310207 NOAA-12 1 21263U 91032A 14044.48873738 .00000080 00000-0 52130-4 0 1658 2 21263 098.6761 072.6897 0013124 234.4734 226.9558 14.25625859182937 MET-3/5 1 21655U 91056A 14044.82602044 .00000438 00000-0 11067-2 0 9025 2 21655 082.5527 083.5853 0012350 241.8904 118.0970 13.17048797 81744 MET-2/21 1 22782U 93055A 14044.77994483 .00000015 00000-0 -16530-7 0 9761 2 22782 082.5468 271.2227 0021246 249.8713 162.0893 13.83724509 33050 OKEAN-4 1 23317U 94066A 14044.47438344 .00001988 00000-0 22892-3 0 4550 2 23317 082.5405 183.8722 0021784 146.5148 324.6166 14.85086965 44743 NOAA-14 1 23455U 94089A 14044.46408892 .00000067 00000-0 58401-4 0 6467 2 23455 098.7842 130.0702 0009818 038.2802 093.7386 14.13948336986462 NOAA-15 1 25338U 98030A 14044.50925972 .00000197 00000-0 10257-3 0 764 2 25338 098.7460 038.6615 0011499 143.5940 325.2472 14.25342866819224 RESURS 1 25394U 98043A 14044.53002333 .00000064 00000-0 45614-4 0 5876 2 25394 098.3977 014.2137 0000426 206.3903 261.0215 14.24367305810710 FENGYUN1 1 25730U 99025A 14043.53891142 .00003996 00000-0 22248-2 0 782 2 25730 098.9036 005.5071 0028131 096.8607 042.6062 14.11347487759936 OKEAN-0 1 25860U 99039A 14044.11064265 .00000876 00000-0 13789-3 0 1735 2 25860 098.0275 008.8512 0002116 103.7733 311.5914 14.74968519783862 NOAA-16 1 26536U 00055A 14044.47243031 .00000098 00000-0 76792-4 0 5649 2 26536 099.0068 104.2067 0011039 170.8184 314.2819 14.12987292690647 NOAA-17 1 27453U 02032A 14044.54095001 .00000142 00000-0 78302-4 0 4687 2 27453 098.3125 050.7832 0012130 172.0808 297.5009 14.24686870605086 NOAA-18 1 28654U 05018A 14044.52834571 .00000096 00000-0 77719-4 0 9515 2 28654 099.1353 021.6394 0013468 249.4648 216.7716 14.11946171450117 NOAA-19 1 33591U 09005A 14044.53069319 .00000289 00000-0 18295-3 0 1241 2 33591 098.9332 350.0257 0015103 107.8981 359.4335 14.11638352258543 HUBBLE 1 20580U 90037B 14043.67167269 .00004427 00000-0 29522-3 0 4366 2 20580 028.4706 135.2719 0003488 041.3350 078.4030 15.04663330105943 ISS 1 25544U 98067A 14044.86373184 .00015914 00000-0 28311-3 0 6752 2 25544 051.6508 350.9295 0004097 132.2628 263.3403 15.50310551872198 CO-58 1 28895U 05043F 14043.55927163 .00001471 00000-0 30439-3 0 6941 2 28895 097.8451 251.8382 0018314 047.5148 312.7598 14.61559101442045 FALCON 1 30776U 07006E 14044.50260880 .00011515 00000-0 62687-3 0 8015 2 30776 035.4297 158.2417 0001210 232.5788 220.5672 15.13720884381962 MAST 1 31126U 07012K 14043.94917872 .00001250 00000-0 28425-3 0 9725 2 31126 097.9030 031.4233 0092899 022.8105 030.6233 14.54966166362325 CAPE1 1 31130U 07012P 14044.50291523 .00002068 00000-0 46880-3 0 9779 2 31130 097.9226 028.4611 0100533 038.1649 322.6612 14.54010824361832 COMPASS 1 32787U 08021E 14044.79376965 .00003937 00000-0 44646-3 0 8564 2 32787 097.7189 101.8282 0013512 224.5276 135.4855 14.86846747313847 AAUSAT2 1 32788U 08021F 14044.11307286 .00004173 00000-0 46616-3 0 8406 2 32788 097.7204 102.0133 0012943 225.1758 134.8407 14.87443113313794 DO-64 1 32789U 08021G 14044.18425510 .00009081 00000-0 91769-3 0 8777 2 32789 097.7377 107.4851 0012442 213.6912 208.4578 14.91192068314007 CO-66 1 32791U 08021J 14044.44452537 .00003191 00000-0 37310-3 0 8361 2 32791 097.7192 100.4929 0013896 228.5055 131.4968 14.85723196313676 RS-30 1 32953U 08025A 14044.68346352 .00000010 00000-0 00000 0 0 6499 2 32953 082.5023 278.0144 0019490 065.2302 295.0808 12.43042589259917 METEOR-M 1 35865U 09049A 14044.73049962 .00000031 00000-0 33185-4 0 2566 2 35865 098.5682 095.7870 0003241 090.1856 269.9693 14.21908035228797 RS-38 1 35869U 09049E 14044.74760453 .00000049 00000-0 41341-4 0 2041 2 35869 098.5607 095.6461 0005745 096.9850 042.5713 14.22179298228826 JUGNU 1 37839U 11058B 14044.04874366 .00000479 00000-0 11428-3 0 5610 2 37839 019.9608 287.2774 0019080 056.6421 085.3684 14.12246039120980 SRMSAT 1 37841U 11058D 14044.15368000 .00000429 00000-0 91538-4 0 5614 2 37841 019.9719 303.4802 0011937 002.3450 129.7945 14.10298920120822 RAX-2 1 37853U 11061D 14044.85888545 .00013570 00000-0 96251-3 0 7236 2 37853 101.7127 015.9451 0225227 053.0814 001.8273 14.86755543124313 AUBIESAT 1 37854U 11061E 14044.48777098 .00015694 00000-0 10828-2 0 7061 2 37854 101.7166 016.8508 0224269 051.9448 065.2755 14.87772969124293 HRBE 1 37855U 11061F 14044.88322973 .00013860 00000-0 96583-3 0 7172 2 37855 101.7169 016.9703 0225776 051.7165 001.4911 14.87269830124332 RS-39 1 38051U 11062C 14044.86391356 .00042871 00000-0 92278-3 0 2560 2 38051 051.6306 116.2252 0009049 052.9027 062.5141 15.44153640114958 E-STAR 1 38079U 12006C 14042.40348498 .00088713 45075-5 13978-2 0 7415 2 38079 069.4649 316.1670 0487029 174.3865 306.1435 14.78370156104677 GOLIAT 1 38085U 12006J 14044.87364124 .00079797 42201-5 12818-2 0 8041 2 38085 069.4682 314.6647 0501098 173.3122 187.5064 14.75057927104906 HORYU-2 1 38340U 12025D 14044.80180906 .00003127 00000-0 50793-3 0 7609 2 38340 098.2466 000.0782 0011528 203.3912 156.6760 14.71825031 93644 RS-40 1 38735U 12041C 14044.60885209 .00000024 00000-0 10000-3 0 4866 2 38735 082.4766 004.5887 0016829 160.3492 199.8244 12.42556320 70233 PROITERES 1 38756U 12047B 14044.84928715 .00000924 00000-0 14636-3 0 5770 2 38756 098.2329 131.1324 0013346 061.2101 299.0446 14.74645129 77008 BEESAT-3 1 39134U 13015E 14044.73398165 .00011644 00000-0 87042-3 0 5003 2 39134 064.8773 168.7149 0015400 326.0504 033.9625 15.03017398 45096 BEESAT-2 1 39136U 13015G 14043.82576377 .00009958 00000-0 75312-3 0 4907 2 39136 064.8688 171.7376 0015968 330.3734 029.6469 15.02669256 44958 CAPE-2 1 39380U 13064A 14043.65554818 .00007170 00000-0 31781-3 0 877 2 39380 040.5177 117.9943 0003367 193.4443 166.6259 15.21758247 12897 TRLBLAZER 1 39382U 13064C 14044.49503507 .00054726 00000-0 19995-2 0 1086 2 39382 040.5046 111.0322 0004169 088.2020 271.8760 15.27224123 13033 ZACUBE-1 1 39417U 13066B 14044.80801487 .00002465 00000-0 34268-3 0 2186 2 39417 097.7860 119.6426 0061684 283.5591 075.8706 14.77443909 12475 TRITON-1 1 39427U 13066M 14043.82542445 .00002183 00000-0 37783-3 0 702 2 39427 097.7772 117.0209 0118424 286.3378 072.4842 14.64819551 12186 DELFIN3XT 1 39428U 13066N 14043.83233354 .00003595 00000-0 63935-3 0 740 2 39428 097.7765 116.7009 0129507 286.7382 071.9662 14.62380883 12156 GOMX-1 1 39430U 13066Q 14044.79583554 .00002135 00000-0 41759-3 0 2223 2 39430 097.7717 116.8191 0157153 285.2618 073.1274 14.56275309 12256 $50SAT 1 39436U 13066W 14044.39030271 .00018722 00000-0 21429-2 0 899 2 39436 097.7885 120.2059 0028911 297.4722 062.3637 14.85709842 12462 PUCPSAT-1 1 39442U 13066AC 14044.71424344 .00004416 00000-0 51714-3 0 650 2 39442 097.7905 120.5652 0034380 291.7190 068.0426 14.85113901 11291 /EX
participants (1)
-
Ray Hoad